IRNSS-1E (41241 NORAD) Tracking and Keplerian Element Data

This shows tracking and keplerian element data for the satellite.

Feedback or suggestion? Click here.




ElementValue
Catalog41241
NameIRNSS-1E
Epoch Orbit1194
Epoch Day106.85623061
Epoch Year2019
RAAN103.3006
Inclination29.1589
Eccentricity0.0020205
Argument of Perigee186.1701
Mean Anonmoly335.2877
Mean Motion1.00270567
Decay Rate-2.74E-06
L11 41241U 16003A 19106.85623061 -.00000274 00000-0 00000-0 0 9994
L22 41241 29.1589 103.3006 0020205 186.1701 335.2877 1.00270567 11942

Live tracking and technical data element details for IRNSS-1E (NORAD 41241). IRNSS-1E can be tracked NOW for your location showing map with azimuth and elevation plus other details from your city location.

Track the satellite on the map from your city or location and see movement details for azimuth, elevation, latitude, longitude, range, height, and movement on the map or in text.







IsCatalogInMostPopularTable: catalog: 41241, numindb: 190
Update: records affected: 1



GetName: 41241 IRNSS-1E

Hit Count: updated at: Sat, 20 Apr 2019 01:05:51 GMT